Location: B�hl
(48.6968°N, 8.1352°E)
Time: 03:11:56
(UTC+00:00)

Cosmos 1821 Rocket - Pass Details

Date: 08 March 2021
Orbit: 945 x 1005 km, 82.9° (Epoch: 17 April)

Event Time Altitude Azimuth Distance (km) Brightness Sun altitude
Rises 19:07:55 0° 172° (S) 3,665 6.8 -18.1°
Reaches altitude 10° 19:10:29 10° 169° (SSE) 2,713 6.1 -18.5°
Maximum altitude 19:16:31 56° 92° (E) 1,133 4.0 -19.5°
Drops below altitude 10° 19:22:30 10° 16° (NNE) 2,694 6.3 -20.4°
Sets 19:25:02 0° 13° (NNE) 3,638 7.1 -20.8°
